Meteo pe oră la Bolshie Moshki

Astăzi, 8 Mai, Sâmbătă

Timp Temperatura Precipitaţii Vânt Presiune Umiditate
00:00 +4°C° 0.5 mm 3 m/s 731 mmHg 91%
01:00 +5°C° 0.5 mm 4 m/s 731 mmHg 92%
02:00 +5°C° 0 mm 4 m/s 730 mmHg 94%
03:00 +5°C° 0.3 mm 4 m/s 730 mmHg 94%
04:00 +5°C° 0.3 mm 4 m/s 730 mmHg 94%
05:00 +5°C° 0.3 mm 4 m/s 729 mmHg 95%
06:00 +5°C° 0.1 mm 3 m/s 730 mmHg 93%
07:00 +7°C° 0.1 mm 3 m/s 730 mmHg 92%
08:00 +7°C° 0 mm 2 m/s 730 mmHg 91%
09:00 +5°C° 0.1 mm 3 m/s 730 mmHg 90%
10:00 +5°C° 0.1 mm 3 m/s 730 mmHg 89%
11:00 +5°C° 0.1 mm 3 m/s 731 mmHg 88%
12:00 +7°C° 0 mm 3 m/s 731 mmHg 81%
13:00 +7°C° 0 mm 4 m/s 731 mmHg 73%
14:00 +7°C° 0 mm 4 m/s 731 mmHg 66%
15:00 +7°C° 0 mm 4 m/s 731 mmHg 67%
16:00 +6°C° 0 mm 4 m/s 731 mmHg 68%
17:00 +6°C° 0 mm 4 m/s 731 mmHg 69%
18:00 +5°C° 0 mm 4 m/s 731 mmHg 70%
19:00 +4°C° 0 mm 4 m/s 732 mmHg 71%
20:00 +3°C° 0 mm 5 m/s 732 mmHg 72%
21:00 +3°C° 0 mm 4 m/s 732 mmHg 74%
22:00 +1°C° 0 mm 4 m/s 732 mmHg 76%
23:00 +2°C° 0 mm 3 m/s 732 mmHg 78%

Mâine, 9 Mai, Duminică

Timp Temperatura Precipitaţii Vânt Presiune Umiditate
00:00 0°C° 0 mm 4 m/s 733 mmHg 82%
01:00 0°C° 0 mm 4 m/s 733 mmHg 85%
02:00 0°C° 0 mm 4 m/s 734 mmHg 89%
03:00 0°C° 0 mm 4 m/s 734 mmHg 87%
04:00 0°C° 0 mm 4 m/s 735 mmHg 84%
05:00 0°C° 0 mm 5 m/s 735 mmHg 82%
06:00 +1°C° 0 mm 5 m/s 736 mmHg 74%
07:00 +3°C° 0 mm 5 m/s 737 mmHg 67%
08:00 +5°C° 0 mm 5 m/s 737 mmHg 59%
09:00 +6°C° 0 mm 5 m/s 738 mmHg 53%
10:00 +7°C° 0 mm 5 m/s 738 mmHg 46%
11:00 +9°C° 0 mm 5 m/s 739 mmHg 40%
12:00 +9°C° 0 mm 5 m/s 739 mmHg 37%
13:00 +9°C° 0 mm 5 m/s 740 mmHg 35%
14:00 +10°C° 0 mm 5 m/s 740 mmHg 32%
15:00 +10°C° 0 mm 5 m/s 740 mmHg 35%
16:00 +11°C° 0 mm 4 m/s 741 mmHg 38%
17:00 +10°C° 0 mm 3 m/s 741 mmHg 40%
18:00 +9°C° 0 mm 3 m/s 742 mmHg 48%
19:00 +7°C° 0 mm 2 m/s 742 mmHg 56%
20:00 +6°C° 0 mm 1 m/s 743 mmHg 63%
21:00 +5°C° 0 mm 1 m/s 743 mmHg 66%
22:00 +5°C° 0 mm 1 m/s 744 mmHg 68%
23:00 +4°C° 0 mm 1 m/s 744 mmHg 71%

Poimâine, 10 Mai, Luni

Timp Temperatura Precipitaţii Vânt Presiune Umiditate
00:00 +4°C° 0 mm 1 m/s 744 mmHg 73%
01:00 +3°C° 0 mm 1 m/s 745 mmHg 75%
02:00 +2°C° 0 mm 2 m/s 745 mmHg 78%
03:00 +2°C° 0 mm 2 m/s 746 mmHg 77%
04:00 +3°C° 0 mm 2 m/s 746 mmHg 76%
05:00 +3°C° 0 mm 2 m/s 746 mmHg 75%
06:00 +5°C° 0 mm 2 m/s 746 mmHg 67%
07:00 +7°C° 0 mm 3 m/s 746 mmHg 60%
08:00 +8°C° 0 mm 4 m/s 747 mmHg 52%
09:00 +10°C° 0 mm 4 m/s 747 mmHg 50%
10:00 +12°C° 0 mm 4 m/s 747 mmHg 48%
11:00 +13°C° 0 mm 4 m/s 747 mmHg 46%
12:00 +14°C° 0 mm 4 m/s 747 mmHg 45%
13:00 +16°C° 0 mm 3 m/s 746 mmHg 44%
14:00 +17°C° 0 mm 3 m/s 746 mmHg 44%
15:00 +17°C° 0 mm 3 m/s 746 mmHg 47%
16:00 +17°C° 0 mm 3 m/s 746 mmHg 50%
17:00 +17°C° 0 mm 2 m/s 746 mmHg 53%
18:00 +15°C° 0 mm 2 m/s 747 mmHg 62%
19:00 +12°C° 0 mm 2 m/s 747 mmHg 70%
20:00 +9°C° 0 mm 2 m/s 747 mmHg 79%
21:00 +9°C° 0 mm 2 m/s 747 mmHg 82%
22:00 +8°C° 0 mm 2 m/s 748 mmHg 85%
23:00 +7°C° 0 mm 2 m/s 748 mmHg 87%

11 Mai, Marţi

Timp Temperatura Precipitaţii Vânt Presiune Umiditate
00:00 +7°C° 0 mm 2 m/s 748 mmHg 88%
01:00 +6°C° 0 mm 2 m/s 748 mmHg 89%
02:00 +6°C° 0 mm 2 m/s 748 mmHg 89%
03:00 +6°C° 0 mm 2 m/s 748 mmHg 88%
04:00 +7°C° 0 mm 1 m/s 748 mmHg 86%
05:00 +8°C° 0 mm 1 m/s 748 mmHg 84%
06:00 +9°C° 0 mm 2 m/s 748 mmHg 75%
07:00 +12°C° 0 mm 2 m/s 749 mmHg 66%
08:00 +14°C° 0 mm 2 m/s 749 mmHg 57%
09:00 +14°C° 0 mm 3 m/s 749 mmHg 53%
10:00 +17°C° 0 mm 3 m/s 748 mmHg 48%
11:00 +18°C° 0 mm 3 m/s 748 mmHg 44%
12:00 +18°C° 0 mm 3 m/s 748 mmHg 44%
13:00 +19°C° 0 mm 3 m/s 748 mmHg 44%
14:00 +19°C° 0 mm 3 m/s 748 mmHg 44%
15:00 +19°C° 0 mm 3 m/s 747 mmHg 47%
16:00 +19°C° 0 mm 3 m/s 747 mmHg 51%
17:00 +18°C° 0 mm 3 m/s 747 mmHg 54%
18:00 +16°C° 0 mm 2 m/s 747 mmHg 63%
19:00 +14°C° 0 mm 2 m/s 747 mmHg 72%
20:00 +12°C° 0 mm 2 m/s 747 mmHg 80%
21:00 +10°C° 0 mm 2 m/s 747 mmHg 80%
22:00 +9°C° 0 mm 2 m/s 747 mmHg 80%
23:00 +9°C° 0 mm 2 m/s 746 mmHg 80%

12 Mai, Miercuri

Timp Temperatura Precipitaţii Vânt Presiune Umiditate
00:00 +8°C° 0 mm 2 m/s 746 mmHg 81%
01:00 +8°C° 0 mm 2 m/s 746 mmHg 82%
02:00 +8°C° 0 mm 1 m/s 746 mmHg 83%
03:00 +9°C° 0 mm 1 m/s 746 mmHg 81%
04:00 +9°C° 0 mm 1 m/s 746 mmHg 80%
05:00 +9°C° 0 mm 1 m/s 746 mmHg 79%
06:00 +12°C° 0 mm 2 m/s 746 mmHg 72%
07:00 +13°C° 0 mm 3 m/s 746 mmHg 64%
08:00 +16°C° 0 mm 3 m/s 746 mmHg 57%
09:00 +17°C° 0 mm 4 m/s 745 mmHg 54%
10:00 +19°C° 0 mm 4 m/s 745 mmHg 52%
11:00 +20°C° 0 mm 5 m/s 745 mmHg 50%
12:00 +21°C° 0.1 mm 5 m/s 745 mmHg 52%
13:00 +21°C° 0.1 mm 5 m/s 744 mmHg 54%
14:00 +21°C° 0.1 mm 5 m/s 744 mmHg 56%
15:00 +20°C° 0.1 mm 5 m/s 744 mmHg 61%
16:00 +20°C° 0.1 mm 5 m/s 744 mmHg 65%
17:00 +19°C° 0.1 mm 4 m/s 744 mmHg 70%
18:00 +17°C° 0 mm 3 m/s 744 mmHg 75%
19:00 +16°C° 0 mm 3 m/s 743 mmHg 80%
20:00 +15°C° 0 mm 2 m/s 743 mmHg 85%
21:00 +14°C° 0 mm 2 m/s 743 mmHg 88%
22:00 +14°C° 0 mm 2 m/s 743 mmHg 90%
23:00 +14°C° 0 mm 2 m/s 743 mmHg 93%

13 Mai, Joi

Timp Temperatura Precipitaţii Vânt Presiune Umiditate
00:00 +13°C° 0.2 mm 3 m/s 742 mmHg 94%
01:00 +13°C° 0.2 mm 3 m/s 742 mmHg 94%
02:00 +13°C° 0.2 mm 3 m/s 741 mmHg 95%
03:00 +13°C° 0.1 mm 3 m/s 741 mmHg 95%
04:00 +13°C° 0.1 mm 3 m/s 741 mmHg 95%
05:00 +13°C° 0.1 mm 4 m/s 740 mmHg 95%
06:00 +13°C° 0.2 mm 4 m/s 740 mmHg 95%
07:00 +14°C° 0.2 mm 4 m/s 740 mmHg 94%
08:00 +14°C° 0.2 mm 5 m/s 740 mmHg 93%
09:00 +14°C° 0.4 mm 5 m/s 739 mmHg 91%
10:00 +15°C° 0.4 mm 5 m/s 739 mmHg 88%
11:00 +16°C° 0.4 mm 5 m/s 739 mmHg 86%
12:00 +16°C° 0.5 mm 5 m/s 739 mmHg 84%
13:00 +16°C° 0.5 mm 5 m/s 739 mmHg 82%
14:00 +17°C° 0.5 mm 4 m/s 739 mmHg 80%
15:00 +17°C° 0.2 mm 4 m/s 739 mmHg 78%
16:00 +17°C° 0.2 mm 4 m/s 739 mmHg 76%
17:00 +17°C° 0.2 mm 4 m/s 739 mmHg 73%
18:00 +16°C° 0 mm 3 m/s 739 mmHg 80%
19:00 +15°C° 0 mm 2 m/s 739 mmHg 86%
20:00 +13°C° 0 mm 2 m/s 739 mmHg 93%
21:00 +13°C° 0 mm 2 m/s 739 mmHg 94%
22:00 +12°C° 0 mm 2 m/s 739 mmHg 95%
23:00 +12°C° 0 mm 2 m/s 739 mmHg 96%
Arată mai mult

Formular de consimțământ

Meteoprog și furnizorii noștri de servicii pot stoca și accesa date personale, precum cookies, identificatori de dispozitiv sau alte tehnologii similare pe dispozitivul dumneavoastră și procesa astfel de date pentru a personaliza conținutul și reclamele, dar și pentru a oferi caracteristici de social media și pentru a analiza traficul.

  • Stocarea și/sau accesarea informațiilor pe dispozitivul dumneavoastră

    Cookies, identificatori de dispozitiv sau alte informații pot fi stocate sau accesate pe dispozitiv în scopurile indicate mai sus.

  • Reclame și conținut personalizat, evaluarea reclamelor și a conținutului, informații despre audiențe și dezvoltarea produselor

    Reclamele și conținutul pot fi personalizate pe baza unui profil. Pot fi adăugate date suplimentare pentru a personaliza mai bine reclamele și conținutul. Performanța reclamelor și conținutului poate fi măsurată. Pot fi obținute informații despre utilizatorii care au văzut reclamele și conținutul. Aceste date pot fi utilizate pentru a dezvolta sau îmbunătăți experiența utilizatorilor, sistemele și software-ul.

Dând clic pe ‘Sunt de acord’, permiteți utilizarea cookie-urilor menționate, a identificatorilor de dispozitiv, balizelor web sau altor tehnologii similare. Setările pot fi modificate din browser-ul dispozitivului dumneavoastră.

În anumite scopuri, interesele legitime pot prima asupra consimțământului. Puteți citi mai multe informații în acest sens în Politica privind Confidențialitatea Datelor și Cookie.